EZY35UC LGKO-EGCC

Flight info

Callsign EZY35UC
Flight time N/A
Altitude 36000
Route LARKI UL609 MES UG18 FSK UL608 DISOR DCT LONTA UL608 DOLEV/N0449F360 DCT ERKIR DCT BABEG DCT LIRSU DCT DENUT L610 LAM UN57 WELIN T420 ELVOS
Aircraft A320/M-SDE3FGHIRWY/LB1

Departure

Time 2026-04-29 14:13
Airport Kos International Airport "Ippokratis" (LGKO)

Arrival

Time N/A
Airport Manchester Airport (EGCC)
Time Latitude Longitude Altitude Speed Heading
2026-04-29 13:47 36.80046 27.09013 419 ft 0 kts 58°
2026-04-29 14:00 36.80045 27.09011 419 ft 2 kts 58°
2026-04-29 14:00 36.80032 27.08983 416 ft 4 kts 63°
2026-04-29 14:01 36.80021 27.08953 410 ft 4 kts 75°
2026-04-29 14:01 36.80019 27.08922 411 ft 4 kts 118°
2026-04-29 14:01 36.80025 27.08912 413 ft 0 kts 147°
2026-04-29 14:07 36.80006 27.08927 408 ft 6 kts 147°
2026-04-29 14:07 36.79953 27.08968 412 ft 10 kts 152°
2026-04-29 14:07 36.79943 27.08973 419 ft 10 kts 159°
2026-04-29 14:08 36.79933 27.08977 419 ft 10 kts 161°
2026-04-29 14:08 36.79874 27.08982 408 ft 8 kts 179°
2026-04-29 14:08 36.79794 27.08985 419 ft 14 kts 178°
2026-04-29 14:09 36.79703 27.08988 419 ft 11 kts 178°
2026-04-29 14:09 36.79626 27.08994 417 ft 13 kts 171°
2026-04-29 14:09 36.79532 27.09056 418 ft 19 kts 147°
2026-04-29 14:09 36.79408 27.09152 412 ft 24 kts 147°
2026-04-29 14:10 36.79257 27.09269 408 ft 26 kts 148°
2026-04-29 14:10 36.79102 27.09390 401 ft 26 kts 148°
2026-04-29 14:10 36.78946 27.09513 395 ft 26 kts 148°
2026-04-29 14:10 36.78800 27.09626 392 ft 25 kts 148°
2026-04-29 14:11 36.78661 27.09735 393 ft 22 kts 148°
2026-04-29 14:11 36.78584 27.09829 388 ft 12 kts 152°
2026-04-29 14:11 36.78577 27.09800 389 ft 3 kts 326°
2026-04-29 14:11 36.78577 27.09799 389 ft 0 kts 326°
2026-04-29 14:12 36.78609 27.09773 391 ft 24 kts 327°
2026-04-29 14:12 36.78980 27.09485 397 ft 100 kts 328°
2026-04-29 14:13 36.79755 27.08881 465 ft 154 kts 328°
2026-04-29 14:13 36.80679 27.08161 1148 ft 159 kts 326°
2026-04-29 14:13 36.81342 27.07065 1780 ft 168 kts 290°
2026-04-29 14:13 36.81316 27.05537 2146 ft 188 kts 265°
2026-04-29 14:14 36.81311 27.03878 2395 ft 196 kts 296°
2026-04-29 14:14 36.81960 27.02405 2802 ft 200 kts 309°
2026-04-29 14:14 36.82789 27.00978 3246 ft 206 kts 311°
2026-04-29 14:14 36.83664 26.99521 3658 ft 214 kts 310°
2026-04-29 14:15 36.84573 26.97972 3996 ft 232 kts 309°
2026-04-29 14:15 36.85563 26.96244 4255 ft 256 kts 308°
2026-04-29 14:15 36.86598 26.94373 4839 ft 266 kts 306°
2026-04-29 14:15 36.87624 26.92425 5599 ft 268 kts 305°
2026-04-29 14:16 36.88629 26.90458 6415 ft 269 kts 304°
2026-04-29 14:16 36.89641 26.88470 7093 ft 274 kts 304°
2026-04-29 14:16 36.90670 26.86446 7775 ft 278 kts 305°
2026-04-29 14:16 36.91705 26.84402 8541 ft 278 kts 304°
2026-04-29 14:17 36.92736 26.82362 9361 ft 277 kts 304°
2026-04-29 14:17 36.93774 26.80311 10055 ft 281 kts 303°
2026-04-29 14:17 36.94806 26.78161 10393 ft 298 kts 301°
2026-04-29 14:17 36.95811 26.75845 10668 ft 314 kts 301°
2026-04-29 14:18 36.97228 26.73730 10982 ft 325 kts 326°
2026-04-29 14:18 36.99312 26.72720 11490 ft 332 kts 353°
2026-04-29 14:18 37.01636 26.72879 12094 ft 338 kts
2026-04-29 14:18 37.03968 26.73437 12652 ft 345 kts 11°
2026-04-29 14:19 37.06309 26.74166 13287 ft 348 kts 12°
2026-04-29 14:19 37.08667 26.74942 13851 ft 353 kts 12°
2026-04-29 14:19 37.11056 26.75714 14337 ft 358 kts 13°
2026-04-29 14:19 37.13487 26.76467 14855 ft 361 kts 10°
2026-04-29 14:20 37.15934 26.77184 15427 ft 363 kts 10°
2026-04-29 14:20 37.18409 26.77884 15937 ft 367 kts
2026-04-29 14:20 37.20915 26.78570 16482 ft 369 kts
2026-04-29 14:20 37.23434 26.79251 17037 ft 372 kts 10°
2026-04-29 14:21 37.25978 26.79947 17490 ft 377 kts 10°
2026-04-29 14:21 37.28552 26.80659 17980 ft 380 kts 10°
2026-04-29 14:21 37.31145 26.81378 18499 ft 382 kts 10°
2026-04-29 14:21 37.33744 26.82100 19014 ft 383 kts 10°
2026-04-29 14:22 37.36325 26.82825 19447 ft 386 kts 11°
2026-04-29 14:22 37.38977 26.83172 19960 ft 382 kts 352°
2026-04-29 14:22 37.41493 26.82206 20409 ft 379 kts 329°
2026-04-29 14:22 37.43686 26.80354 20837 ft 381 kts 321°
2026-04-29 14:23 37.45719 26.78206 21297 ft 383 kts 317°
2026-04-29 14:23 37.47680 26.75913 21728 ft 386 kts 315°
2026-04-29 14:23 37.49627 26.73569 22135 ft 389 kts 315°
2026-04-29 14:23 37.51610 26.71221 22539 ft 392 kts 316°
2026-04-29 14:24 37.53642 26.68906 22975 ft 395 kts 317°
2026-04-29 14:24 37.55721 26.66624 23378 ft 397 kts 318°
2026-04-29 14:24 37.57833 26.64361 23749 ft 400 kts 319°
2026-04-29 14:24 37.59969 26.62092 24076 ft 402 kts 319°
2026-04-29 14:25 37.62111 26.59804 24404 ft 404 kts 318°
2026-04-29 14:25 37.64252 26.57499 24744 ft 406 kts 318°
2026-04-29 14:25 37.66396 26.55172 25059 ft 408 kts 318°
2026-04-29 14:25 37.68557 26.52822 25342 ft 410 kts 318°
2026-04-29 14:26 37.70724 26.50463 25650 ft 412 kts 318°
2026-04-29 14:26 37.72898 26.48095 25985 ft 413 kts 318°
2026-04-29 14:26 37.75054 26.45742 26261 ft 416 kts 318°
2026-04-29 14:26 37.77276 26.43316 26552 ft 418 kts 318°
2026-04-29 14:27 37.78734 26.41726 26760 ft 418 kts 318°
2026-04-29 14:27 37.80942 26.39322 27069 ft 420 kts 318°
2026-04-29 14:27 37.83880 26.36123 27454 ft 422 kts 318°
2026-04-29 14:28 37.88348 26.31253 28004 ft 425 kts 318°
2026-04-29 14:28 37.89864 26.29594 28186 ft 426 kts 318°
2026-04-29 14:28 37.92082 26.27159 28439 ft 428 kts 318°
2026-04-29 14:28 37.94366 26.24647 28707 ft 430 kts 318°
2026-04-29 14:29 37.96626 26.22160 28951 ft 431 kts 318°
2026-04-29 14:29 37.98894 26.19661 29192 ft 433 kts 318°
2026-04-29 14:29 38.01167 26.17151 29425 ft 434 kts 318°
2026-04-29 14:29 38.03422 26.14660 29646 ft 436 kts 318°
2026-04-29 14:30 38.05712 26.12133 29877 ft 437 kts 318°
2026-04-29 14:30 38.08008 26.09601 30093 ft 438 kts 318°
2026-04-29 14:30 38.10312 26.07061 30346 ft 437 kts 318°
2026-04-29 14:30 38.12606 26.04528 30633 ft 436 kts 318°
2026-04-29 14:31 38.14889 26.02006 30946 ft 434 kts 318°
2026-04-29 14:31 38.17161 25.99493 31240 ft 432 kts 318°
2026-04-29 14:31 38.19428 25.96978 31518 ft 431 kts 317°
2026-04-29 14:31 38.21680 25.94470 31769 ft 430 kts 317°
2026-04-29 14:32 38.23928 25.91967 32054 ft 429 kts 317°
2026-04-29 14:32 38.26185 25.89495 32319 ft 428 kts 319°
2026-04-29 14:32 38.28502 25.87123 32595 ft 427 kts 321°
2026-04-29 14:32 38.30864 25.84834 32850 ft 426 kts 322°
2026-04-29 14:33 38.33247 25.82588 33111 ft 426 kts 322°
2026-04-29 14:33 38.35625 25.80357 33366 ft 425 kts 322°
2026-04-29 14:33 38.37995 25.78111 33618 ft 424 kts 321°
2026-04-29 14:33 38.40312 25.75880 33872 ft 423 kts 321°
2026-04-29 14:34 38.42648 25.73604 34040 ft 422 kts 321°
2026-04-29 14:34 38.47288 25.69041 34065 ft 421 kts 321°
2026-04-29 14:35 38.51921 25.64482 34068 ft 420 kts 321°
2026-04-29 14:35 38.56565 25.59929 34070 ft 420 kts 321°
2026-04-29 14:36 38.61204 25.55377 34070 ft 420 kts 321°
2026-04-29 14:36 38.65843 25.50818 34073 ft 420 kts 321°
2026-04-29 14:37 38.70472 25.46255 34066 ft 419 kts 321°
2026-04-29 14:37 38.75084 25.41699 34073 ft 418 kts 321°
2026-04-29 14:38 38.79660 25.37175 34076 ft 418 kts 321°
2026-04-29 14:38 38.84267 25.32613 34064 ft 418 kts 321°
2026-04-29 14:39 38.88871 25.28045 34079 ft 418 kts 321°
2026-04-29 14:39 38.93482 25.23473 34076 ft 418 kts 321°
2026-04-29 14:40 38.98080 25.18900 34075 ft 417 kts 321°
2026-04-29 14:40 39.02661 25.14323 34079 ft 417 kts 321°
2026-04-29 14:41 39.07253 25.09738 34082 ft 417 kts 321°
2026-04-29 14:41 39.11803 25.05180 34079 ft 417 kts 321°
2026-04-29 14:42 39.16383 25.00588 34079 ft 417 kts 321°
2026-04-29 14:42 39.20959 24.95998 34079 ft 417 kts 321°
2026-04-29 14:43 39.25523 24.91407 34077 ft 415 kts 320°
2026-04-29 14:43 39.30078 24.86817 34077 ft 415 kts 320°
2026-04-29 14:44 39.34632 24.82224 34080 ft 415 kts 320°
2026-04-29 14:44 39.39184 24.77633 34082 ft 415 kts 320°
2026-04-29 14:45 39.43735 24.73033 34083 ft 415 kts 320°
2026-04-29 14:45 39.48274 24.68413 34091 ft 415 kts 320°
2026-04-29 14:46 39.52807 24.63818 34083 ft 413 kts 320°
2026-04-29 14:46 39.57330 24.59233 34071 ft 413 kts 320°
2026-04-29 14:47 39.61844 24.54634 34071 ft 413 kts 320°
2026-04-29 14:47 39.66325 24.50051 34082 ft 413 kts 320°
2026-04-29 14:48 39.70830 24.45434 34085 ft 413 kts 320°
2026-04-29 14:48 39.75341 24.40816 34095 ft 412 kts 320°
2026-04-29 14:49 39.79838 24.36198 34081 ft 411 kts 320°
2026-04-29 14:49 39.84332 24.31576 34080 ft 411 kts 320°
2026-04-29 14:50 39.88820 24.26956 34077 ft 411 kts 320°
2026-04-29 14:50 39.93308 24.22326 34082 ft 412 kts 320°
2026-04-29 14:51 39.97791 24.17690 34085 ft 411 kts 320°
2026-04-29 14:51 40.02275 24.13040 34100 ft 411 kts 319°
2026-04-29 14:52 40.06738 24.08408 34078 ft 410 kts 320°
2026-04-29 14:52 40.11176 24.03800 34076 ft 410 kts 320°
2026-04-29 14:53 40.15646 23.99153 34079 ft 410 kts 320°
2026-04-29 14:53 40.20114 23.94499 34068 ft 410 kts 319°
2026-04-29 14:54 40.24574 23.89836 34077 ft 410 kts 319°
2026-04-29 14:54 40.29030 23.85166 34070 ft 410 kts 319°
2026-04-29 14:55 40.33490 23.80496 34078 ft 410 kts 319°
2026-04-29 14:55 40.37950 23.75826 34079 ft 410 kts 319°
2026-04-29 14:56 40.42409 23.71143 34078 ft 410 kts 319°
2026-04-29 14:56 40.46856 23.66447 34071 ft 410 kts 319°
2026-04-29 14:57 40.51308 23.61746 34073 ft 411 kts 319°
2026-04-29 14:57 40.55758 23.57048 34073 ft 409 kts 319°
2026-04-29 14:58 40.60186 23.52362 34070 ft 408 kts 319°
2026-04-29 14:58 40.64603 23.47672 34068 ft 408 kts 319°
2026-04-29 14:59 40.68986 23.43003 34065 ft 408 kts 319°
2026-04-29 14:59 40.73391 23.38306 34065 ft 407 kts 319°
2026-04-29 15:00 40.77799 23.33609 34057 ft 407 kts 319°
2026-04-29 15:00 40.82205 23.28913 34058 ft 406 kts 319°
2026-04-29 15:01 40.86592 23.24219 34058 ft 405 kts 319°
2026-04-29 15:01 40.90969 23.19522 34053 ft 405 kts 319°
2026-04-29 15:02 40.95349 23.14820 34054 ft 405 kts 319°
2026-04-29 15:02 40.99701 23.10141 34045 ft 405 kts 319°
2026-04-29 15:03 41.04075 23.05424 34051 ft 406 kts 319°
2026-04-29 15:03 41.08446 23.00698 34047 ft 405 kts 318°
2026-04-29 15:04 41.12319 22.95353 34051 ft 402 kts 309°
2026-04-29 15:04 41.15934 22.89684 34051 ft 402 kts 309°
2026-04-29 15:05 41.19541 22.84012 34049 ft 402 kts 309°
2026-04-29 15:05 41.23143 22.78338 34049 ft 402 kts 309°
2026-04-29 15:06 41.26778 22.72704 34049 ft 401 kts 310°
2026-04-29 15:06 41.30552 22.67214 34046 ft 402 kts 311°
2026-04-29 15:07 41.34322 22.61792 34046 ft 402 kts 311°
2026-04-29 15:07 41.38087 22.56307 34040 ft 400 kts 310°
2026-04-29 15:08 41.41818 22.50815 34042 ft 399 kts 310°
2026-04-29 15:08 41.45541 22.45324 34027 ft 399 kts 309°
2026-04-29 15:09 41.49266 22.39835 34030 ft 399 kts 310°
2026-04-29 15:09 41.52986 22.34337 34025 ft 399 kts 310°
2026-04-29 15:10 41.56707 22.28827 34020 ft 399 kts 310°
2026-04-29 15:10 41.60422 22.23317 34021 ft 399 kts 310°
2026-04-29 15:11 41.64133 22.17804 34027 ft 398 kts 310°
2026-04-29 15:11 41.67831 22.12307 33993 ft 397 kts 310°
2026-04-29 15:12 41.71501 22.06835 34018 ft 398 kts 309°
2026-04-29 15:12 41.75195 22.01306 34001 ft 398 kts 309°
2026-04-29 15:13 41.78887 21.95774 34011 ft 398 kts 309°
2026-04-29 15:13 41.81958 21.91177 34001 ft 398 kts 309°
2026-04-29 15:14 41.85647 21.85637 34006 ft 398 kts 309°
2026-04-29 15:14 41.89329 21.80086 34003 ft 398 kts 309°
2026-04-29 15:15 41.93015 21.74525 34002 ft 398 kts 309°
2026-04-29 15:15 41.96687 21.68985 34001 ft 396 kts 309°
2026-04-29 15:16 42.00350 21.63440 34002 ft 396 kts 309°
2026-04-29 15:16 42.04017 21.57887 34004 ft 397 kts 309°
2026-04-29 15:17 42.07654 21.52369 34019 ft 397 kts 309°
2026-04-29 15:17 42.11317 21.46802 34023 ft 397 kts 309°
2026-04-29 15:18 42.14971 21.41226 34022 ft 397 kts 309°
2026-04-29 15:18 42.18602 21.35614 34033 ft 397 kts 308°
2026-04-29 15:19 42.22163 21.29955 34042 ft 394 kts 308°
2026-04-29 15:19 42.25700 21.24285 34047 ft 394 kts 308°
2026-04-29 15:20 42.29213 21.18673 34048 ft 394 kts 308°
2026-04-29 15:20 42.32758 21.13032 34064 ft 394 kts 308°
2026-04-29 15:21 42.36292 21.07389 34060 ft 393 kts 308°
2026-04-29 15:21 42.39827 21.01738 34058 ft 393 kts 308°
2026-04-29 15:22 42.43355 20.96075 34062 ft 394 kts 308°
2026-04-29 15:22 42.46893 20.90404 34060 ft 393 kts 308°
2026-04-29 15:23 42.50413 20.84749 34058 ft 391 kts 308°
2026-04-29 15:23 42.53916 20.79097 34061 ft 391 kts 307°
2026-04-29 15:24 42.57411 20.73447 34061 ft 391 kts 307°
2026-04-29 15:24 42.60905 20.67791 34056 ft 391 kts 307°
2026-04-29 15:25 42.64374 20.62164 34059 ft 391 kts 307°
2026-04-29 15:25 42.67888 20.56461 34059 ft 391 kts 307°
2026-04-29 15:26 42.71354 20.50818 34058 ft 391 kts 307°
2026-04-29 15:26 42.74843 20.45124 34060 ft 392 kts 307°
2026-04-29 15:27 42.78328 20.39428 34067 ft 390 kts 307°
2026-04-29 15:27 42.81799 20.33748 34068 ft 390 kts 307°
2026-04-29 15:28 42.85311 20.28094 34069 ft 391 kts 308°
2026-04-29 15:28 42.88926 20.22565 34073 ft 391 kts 309°
2026-04-29 15:29 42.92559 20.17052 34076 ft 390 kts 309°
2026-04-29 15:30 42.99786 20.05950 34073 ft 392 kts 309°
2026-04-29 15:30 43.03396 20.00367 34072 ft 392 kts 309°
2026-04-29 15:31 43.06984 19.94800 34073 ft 392 kts 308°
2026-04-29 15:31 43.10592 19.89190 34069 ft 392 kts 308°
2026-04-29 15:32 43.14200 19.83581 34070 ft 392 kts 309°
2026-04-29 15:32 43.17809 19.77972 34069 ft 393 kts 308°
2026-04-29 15:33 43.21414 19.72342 34069 ft 393 kts 308°
2026-04-29 15:33 43.24988 19.66746 34067 ft 392 kts 308°
2026-04-29 15:34 43.28581 19.61108 34081 ft 392 kts 308°
2026-04-29 15:34 43.32172 19.55476 34073 ft 392 kts 308°
2026-04-29 15:35 43.35761 19.49832 34067 ft 392 kts 308°
2026-04-29 15:35 43.39352 19.44167 34070 ft 393 kts 308°
2026-04-29 15:36 43.42952 19.38484 34074 ft 394 kts 308°
2026-04-29 15:36 43.46552 19.32793 34076 ft 394 kts 308°
2026-04-29 15:37 43.50147 19.27096 34082 ft 394 kts 308°
2026-04-29 15:37 43.53705 19.21422 34087 ft 394 kts 308°
2026-04-29 15:38 43.57285 19.15709 34086 ft 393 kts 308°
2026-04-29 15:38 43.60861 19.10013 34091 ft 392 kts 308°
2026-04-29 15:39 43.64437 19.04313 34091 ft 392 kts 308°
2026-04-29 15:39 43.68003 18.98602 34090 ft 392 kts 307°
2026-04-29 15:40 43.71566 18.92890 34104 ft 392 kts 307°
2026-04-29 15:40 43.75102 18.87203 34407 ft 392 kts 307°
2026-04-29 15:40 43.76877 18.84344 34672 ft 391 kts 307°
2026-04-29 15:41 43.78646 18.81489 34907 ft 390 kts 307°
2026-04-29 15:41 43.80412 18.78637 35122 ft 390 kts 307°
2026-04-29 15:41 43.82174 18.75788 35342 ft 389 kts 307°
2026-04-29 15:41 43.83932 18.72945 35563 ft 388 kts 307°
2026-04-29 15:42 43.85685 18.70110 35760 ft 387 kts 307°
2026-04-29 15:42 43.87436 18.67277 35921 ft 387 kts 307°
2026-04-29 15:42 43.89183 18.64444 36082 ft 387 kts 307°
2026-04-29 15:43 43.92675 18.58774 36131 ft 386 kts 307°
2026-04-29 15:43 43.96155 18.53113 36136 ft 385 kts 307°
2026-04-29 15:44 43.99630 18.47452 36133 ft 385 kts 307°
2026-04-29 15:44 44.03101 18.41786 36138 ft 385 kts 307°
2026-04-29 15:45 44.06568 18.36119 36148 ft 385 kts 307°
2026-04-29 15:45 44.10006 18.30472 36176 ft 385 kts 308°
2026-04-29 15:46 44.13460 18.24795 36178 ft 384 kts 307°
2026-04-29 15:46 44.16905 18.19114 36193 ft 383 kts 307°
2026-04-29 15:47 44.20343 18.13440 36186 ft 383 kts 307°
2026-04-29 15:47 44.23777 18.07760 36163 ft 383 kts 307°
2026-04-29 15:48 44.27213 18.02067 36175 ft 384 kts 307°
2026-04-29 15:48 44.30660 17.96356 36174 ft 384 kts 307°
2026-04-29 15:49 44.34097 17.90637 36173 ft 384 kts 307°
2026-04-29 15:49 44.37529 17.84913 36204 ft 384 kts 307°
2026-04-29 15:50 44.40965 17.79194 36191 ft 384 kts 307°
2026-04-29 15:50 44.44389 17.73461 36186 ft 384 kts 307°
2026-04-29 15:51 44.47804 17.67726 36196 ft 383 kts 307°
2026-04-29 15:51 44.51219 17.61989 36191 ft 384 kts 307°
2026-04-29 15:52 44.54617 17.56280 36185 ft 384 kts 307°
2026-04-29 15:52 44.58029 17.50519 36193 ft 384 kts 307°
2026-04-29 15:53 44.61442 17.44752 36193 ft 384 kts 307°
2026-04-29 15:53 44.64855 17.38975 36226 ft 384 kts 307°
2026-04-29 15:54 44.68259 17.33205 36226 ft 383 kts 307°
2026-04-29 15:54 44.71653 17.27429 36215 ft 383 kts 307°
2026-04-29 15:55 44.75025 17.21681 36212 ft 383 kts 307°
2026-04-29 15:55 44.78415 17.15896 36210 ft 383 kts 307°
2026-04-29 15:56 44.81800 17.10092 36210 ft 383 kts 307°
2026-04-29 15:56 44.85183 17.04288 36212 ft 383 kts 307°
2026-04-29 15:57 44.88569 16.98484 36213 ft 383 kts 307°
2026-04-29 15:57 44.91949 16.92668 36238 ft 383 kts 306°
2026-04-29 15:58 44.95324 16.86847 36237 ft 383 kts 306°
2026-04-29 15:58 44.98695 16.81027 36234 ft 383 kts 306°
2026-04-29 15:59 45.02064 16.75202 36234 ft 383 kts 306°
2026-04-29 15:59 45.05425 16.69365 36234 ft 382 kts 306°
2026-04-29 16:00 45.08218 16.64503 36223 ft 383 kts 306°
2026-04-29 16:00 45.11577 16.58651 36229 ft 383 kts 306°
2026-04-29 16:01 45.14929 16.52793 36229 ft 383 kts 306°
2026-04-29 16:01 45.18287 16.46928 36259 ft 383 kts 306°
2026-04-29 16:02 45.21637 16.41067 36255 ft 382 kts 306°
2026-04-29 16:02 45.24976 16.35198 36241 ft 382 kts 306°
2026-04-29 16:03 45.28311 16.29320 36241 ft 382 kts 306°
2026-04-29 16:03 45.31644 16.23436 36243 ft 382 kts 306°
2026-04-29 16:04 45.34960 16.17582 36243 ft 382 kts 306°
2026-04-29 16:04 45.38294 16.11685 36247 ft 382 kts 306°
2026-04-29 16:05 45.41618 16.05773 36236 ft 382 kts 306°
2026-04-29 16:05 45.44941 15.99861 36274 ft 383 kts 306°
2026-04-29 16:06 45.48262 15.93944 36270 ft 382 kts 306°
2026-04-29 16:06 45.51578 15.88024 36262 ft 382 kts 306°
2026-04-29 16:07 45.54885 15.82105 36258 ft 382 kts 306°
2026-04-29 16:07 45.58195 15.76180 36242 ft 382 kts 306°
2026-04-29 16:08 45.61503 15.70248 36236 ft 382 kts 306°
2026-04-29 16:08 45.64798 15.64297 36236 ft 382 kts 306°
2026-04-29 16:09 45.68096 15.58335 36241 ft 382 kts 306°
2026-04-29 16:09 45.71397 15.52370 36239 ft 382 kts 306°
2026-04-29 16:10 45.74689 15.46387 36237 ft 382 kts 306°
2026-04-29 16:10 45.77963 15.40446 36237 ft 382 kts 306°
2026-04-29 16:11 45.81257 15.34457 36246 ft 382 kts 306°
2026-04-29 16:11 45.84542 15.28462 36238 ft 382 kts 306°
2026-04-29 16:12 45.87825 15.22456 36245 ft 382 kts 306°
2026-04-29 16:12 45.91106 15.16447 36236 ft 382 kts 305°
2026-04-29 16:13 45.94382 15.10430 36232 ft 382 kts 305°
2026-04-29 16:13 45.97661 15.04402 36258 ft 383 kts 305°
2026-04-29 16:14 46.00936 14.98366 36255 ft 383 kts 305°
2026-04-29 16:14 46.04205 14.92329 36251 ft 382 kts 305°
2026-04-29 16:15 46.07471 14.86284 36237 ft 382 kts 305°
2026-04-29 16:15 46.10732 14.80221 36225 ft 382 kts 305°
2026-04-29 16:16 46.13992 14.74154 36210 ft 383 kts 305°
2026-04-29 16:16 46.17227 14.68121 36213 ft 383 kts 305°
2026-04-29 16:17 46.20485 14.62037 36205 ft 383 kts 305°
2026-04-29 16:17 46.23743 14.55949 36210 ft 383 kts 305°
2026-04-29 16:18 46.26992 14.49853 36223 ft 383 kts 305°
2026-04-29 16:18 46.30238 14.43751 36224 ft 383 kts 305°
2026-04-29 16:19 46.33478 14.37647 36218 ft 383 kts 305°
2026-04-29 16:19 46.36715 14.31532 36221 ft 383 kts 305°
2026-04-29 16:20 46.39930 14.25451 36213 ft 382 kts 305°
2026-04-29 16:20 46.43162 14.19323 36224 ft 383 kts 304°
2026-04-29 16:21 46.46391 14.13174 36224 ft 383 kts 304°
2026-04-29 16:21 46.49620 14.07017 36222 ft 383 kts 305°
2026-04-29 16:22 46.52857 14.00862 36246 ft 383 kts 305°
2026-04-29 16:22 46.56080 13.94695 36233 ft 383 kts 305°
2026-04-29 16:23 46.59287 13.88520 36228 ft 383 kts 305°
2026-04-29 16:23 46.62498 13.82342 36203 ft 383 kts 305°
2026-04-29 16:24 46.65712 13.76168 36205 ft 383 kts 305°
2026-04-29 16:24 46.68921 13.69982 36202 ft 383 kts 305°
2026-04-29 16:25 46.72121 13.63784 36207 ft 383 kts 304°
2026-04-29 16:25 46.75299 13.57605 36198 ft 383 kts 304°
2026-04-29 16:26 46.78497 13.51390 36191 ft 383 kts 305°
2026-04-29 16:26 46.81700 13.45162 36207 ft 384 kts 305°
2026-04-29 16:27 46.84896 13.38921 36209 ft 383 kts 305°
2026-04-29 16:27 46.88090 13.32680 36197 ft 384 kts 304°
2026-04-29 16:28 46.91280 13.26423 36194 ft 384 kts 304°
2026-04-29 16:28 46.94466 13.20161 36192 ft 383 kts 304°
2026-04-29 16:29 46.97642 13.13897 36175 ft 383 kts 304°
2026-04-29 16:29 47.00796 13.07671 36174 ft 383 kts 304°
2026-04-29 16:30 47.03974 13.01392 36171 ft 383 kts 304°
2026-04-29 16:30 47.07150 12.95093 36204 ft 383 kts 305°
2026-04-29 16:31 47.10324 12.88787 36184 ft 384 kts 304°
2026-04-29 16:31 47.13496 12.82462 36162 ft 385 kts 304°
2026-04-29 16:32 47.16673 12.76109 36158 ft 385 kts 304°
2026-04-29 16:32 47.19849 12.69754 36175 ft 386 kts 304°
2026-04-29 16:33 47.24589 12.60239 36174 ft 386 kts 304°
2026-04-29 16:33 47.27754 12.53859 36177 ft 386 kts 304°
2026-04-29 16:34 47.30920 12.47476 36170 ft 386 kts 305°
2026-04-29 16:34 47.34083 12.41092 36213 ft 386 kts 305°
2026-04-29 16:35 47.37249 12.34669 36182 ft 387 kts 305°
2026-04-29 16:35 47.40422 12.28208 36178 ft 389 kts 305°
2026-04-29 16:36 47.43605 12.21725 36179 ft 391 kts 305°
2026-04-29 16:36 47.46793 12.15218 36182 ft 391 kts 305°
2026-04-29 16:37 47.49983 12.08694 36187 ft 391 kts 305°
2026-04-29 16:37 47.52628 12.03266 36194 ft 391 kts 305°
2026-04-29 16:38 47.56380 11.95641 36195 ft 391 kts 306°
2026-04-29 16:38 47.59648 11.89194 36194 ft 391 kts 306°
2026-04-29 16:39 47.62901 11.82782 36200 ft 392 kts 306°
2026-04-29 16:39 47.66172 11.76276 36166 ft 394 kts 306°
2026-04-29 16:40 47.69440 11.69720 36171 ft 395 kts 306°
2026-04-29 16:40 47.72709 11.63148 36178 ft 396 kts 306°
2026-04-29 16:41 47.75987 11.56563 36181 ft 396 kts 306°
2026-04-29 16:41 47.79266 11.49963 36181 ft 397 kts 306°
2026-04-29 16:42 47.82539 11.43350 36185 ft 397 kts 306°
2026-04-29 16:42 47.85813 11.36725 36193 ft 397 kts 306°
2026-04-29 16:43 47.89086 11.30079 36208 ft 398 kts 307°
2026-04-29 16:43 47.92352 11.23436 36180 ft 400 kts 307°
2026-04-29 16:44 47.95644 11.16724 36182 ft 402 kts 307°
2026-04-29 16:44 47.98944 11.09979 36182 ft 402 kts 307°
2026-04-29 16:45 48.01688 11.04363 36165 ft 403 kts 307°